Time,TemperatureF,DewpointF,PressureIn,WindDirection,WindDirectionDegrees,WindSpeedMPH,WindSpeedGustMPH,Humidity,HourlyPrecipIn,Conditions,Clouds,dailyrainin,SoftwareType,DateUTC
2013-01-01 00:02:00,19.5,17.6,30.54,West,272,0.0,0.0,92,0.00,OVC,,0.00,WeatherDisplay:10.37,2013-01-01 08:02:00,
2013-01-01 00:07:00,19.5,17.6,30.54,West,272,0.0,0.0,92,0.00,OVC,,0.00,WeatherDisplay:10.37,2013-01-01 08:07:00,
2013-01-01 00:12:00,19.5,17.6,30.54,West,272,0.0,0.0,92,0.00,OVC,,0.00,WeatherDisplay:10.37,2013-01-01 08:12:00,
2013-01-01 00:17:00,19.6,17.7,30.54,West,272,0.0,0.0,92,0.00,OVC,,0.00,WeatherDisplay:10.37,2013-01-01 08:17:00,
2013-01-01 00:22:00,19.6,17.7,30.54,West,272,0.0,0.0,92,0.00,OVC,,0.00,WeatherDisplay:10.37,2013-01-01 08:22:00,
2013-01-01 00:27:00,19.7,17.8,30.55,West,272,1.1,1.1,92,0.00,OVC,,0.00,WeatherDisplay:10.37,2013-01-01 08:27:00,
2013-01-01 00:32:00,19.7,17.8,30.55,West,272,1.1,1.1,92,0.00,OVC,,0.00,WeatherDisplay:10.37,2013-01-01 08:32:00,
2013-01-01 00:37:00,19.7,17.8,30.55,West,272,1.0,0.0,92,0.00,OVC,,0.00,WeatherDisplay:10.37,2013-01-01 08:37:00,
2013-01-01 00:42:00,19.7,17.8,30.56,West,272,1.1,0.0,92,0.00,OVC,,0.00,WeatherDisplay:10.37,2013-01-01 08:42:00,
2013-01-01 00:47:00,19.6,17.7,30.56,West,272,0.0,0.0,92,0.00,OVC,,0.00,WeatherDisplay:10.37,2013-01-01 08:47:00,
2013-01-01 00:52:00,19.6,17.7,30.55,West,272,0.0,0.0,92,0.00,OVC,,0.00,WeatherDisplay:10.37,2013-01-01 08:52:00,
2013-01-01 00:57:00,19.6,17.7,30.56,West,272,0.0,0.0,92,0.00,OVC,,0.00,WeatherDisplay:10.37,2013-01-01 08:57:00,
2013-01-01 01:02:00,19.6,17.7,30.55,West,272,0.0,0.0,92,0.00,OVC,,0.00,WeatherDisplay:10.37,2013-01-01 09:02:00,
2013-01-01 01:07:00,19.6,17.7,30.55,West,272,2.3,2.3,92,0.00,OVC,,0.00,WeatherDisplay:10.37,2013-01-01 09:07:00,
2013-01-01 01:12:00,19.6,17.7,30.56,West,272,1.1,1.1,92,0.00,OVC,,0.00,WeatherDisplay:10.37,2013-01-01 09:12:00,
2013-01-01 01:17:00,19.5,17.6,30.55,West,272,2.0,2.0,92,0.00,OVC,,0.00,WeatherDisplay:10.37,2013-01-01 09:17:00,
2013-01-01 01:22:00,19.6,17.7,30.56,West,272,2.3,2.3,92,0.00,OVC,,0.00,WeatherDisplay:10.37,2013-01-01 09:22:00,
2013-01-01 01:27:00,19.5,17.6,30.56,West,272,1.1,1.1,92,0.00,OVC,,0.00,WeatherDisplay:10.37,2013-01-01 09:27:00,
2013-01-01 01:32:00,19.5,17.6,30.56,West,272,3.0,3.0,92,0.00,OVC,,0.00,WeatherDisplay:10.37,2013-01-01 09:32:00,
2013-01-01 01:37:00,19.6,17.7,30.57,West,272,3.5,3.5,92,0.00,OVC,,0.00,WeatherDisplay:10.37,2013-01-01 09:37:00,
2013-01-01 01:42:00,19.6,17.7,30.57,West,272,2.3,2.3,92,0.00,OVC,,0.00,WeatherDisplay:10.37,2013-01-01 09:42:00,
2013-01-01 01:47:00,19.5,17.6,30.57,West,272,1.1,0.0,92,0.00,OVC,,0.00,WeatherDisplay:10.37,2013-01-01 09:47:00,
2013-01-01 01:52:00,19.4,17.5,30.57,West,272,3.5,3.5,92,0.00,OVC,,0.00,WeatherDisplay:10.37,2013-01-01 09:52:00,
2013-01-01 01:57:00,19.4,19.4,30.57,West,272,5.8,5.8,100,0.00,OVC,,0.00,WeatherDisplay:10.37,2013-01-01 09:57:00,
2013-01-01 02:02:00,19.5,17.6,30.58,West,272,3.5,3.5,92,0.00,OVC,,0.00,WeatherDisplay:10.37,2013-01-01 10:02:00,
2013-01-01 02:07:00,19.5,17.6,30.58,West,272,0.0,0.0,92,0.00,OVC,,0.00,WeatherDisplay:10.37,2013-01-01 10:07:00,
2013-01-01 02:12:00,19.5,17.6,30.59,West,272,1.1,0.0,92,0.00,OVC,,0.00,WeatherDisplay:10.37,2013-01-01 10:12:00,
2013-01-01 02:17:00,19.5,17.6,30.58,West,272,0.0,0.0,92,0.00,OVC,,0.00,WeatherDisplay:10.37,2013-01-01 10:17:00,
2013-01-01 02:22:00,19.5,17.6,30.58,West,272,2.3,2.3,92,0.00,OVC,,0.00,WeatherDisplay:10.37,2013-01-01 10:22:00,
2013-01-01 02:27:00,19.5,17.6,30.58,West,272,3.5,3.5,92,0.00,OVC,,0.00,WeatherDisplay:10.37,2013-01-01 10:27:00,
2013-01-01 02:32:00,19.5,17.6,30.58,West,272,4.0,4.0,92,0.00,OVC,,0.00,WeatherDisplay:10.37,2013-01-01 10:32:00,
2013-01-01 02:37:00,19.5,17.6,30.59,West,272,3.5,3.5,92,0.00,OVC,,0.00,WeatherDisplay:10.37,2013-01-01 10:37:00,
2013-01-01 02:42:00,19.5,17.6,30.59,West,272,0.0,0.0,92,0.00,OVC,,0.00,WeatherDisplay:10.37,2013-01-01 10:42:00,
2013-01-01 02:47:00,19.5,17.6,30.58,West,272,0.0,0.0,92,0.00,OVC,,0.00,WeatherDisplay:10.37,2013-01-01 10:47:00,
2013-01-01 02:52:00,19.5,17.6,30.58,West,272,0.0,0.0,92,0.00,OVC,,0.00,WeatherDisplay:10.37,2013-01-01 10:52:00,
2013-01-01 02:57:00,19.5,17.6,30.58,West,272,0.0,0.0,92,0.00,OVC,,0.00,WeatherDisplay:10.37,2013-01-01 10:57:00,
2013-01-01 03:02:00,19.5,17.6,30.59,West,272,2.3,2.3,92,0.00,OVC,,0.00,WeatherDisplay:10.37,2013-01-01 11:02:00,
2013-01-01 03:07:00,19.5,17.6,30.59,West,272,0.0,0.0,92,0.00,OVC,,0.00,WeatherDisplay:10.37,2013-01-01 11:07:00,
2013-01-01 03:12:00,19.5,17.6,30.59,West,272,0.0,0.0,92,0.00,OVC,,0.00,WeatherDisplay:10.37,2013-01-01 11:12:00,
2013-01-01 03:17:00,19.5,17.6,30.59,West,272,0.0,0.0,92,0.00,OVC,,0.00,WeatherDisplay:10.37,2013-01-01 11:17:00,
2013-01-01 03:22:00,19.5,17.6,30.58,West,272,0.0,0.0,92,0.00,OVC,,0.00,WeatherDisplay:10.37,2013-01-01 11:22:00,
2013-01-01 03:27:00,19.5,17.6,30.56,WSW,245,4.0,4.0,92,0.00,OVC,,0.00,WeatherDisplay:10.37,2013-01-01 11:27:00,
2013-01-01 03:33:00,19.5,17.6,30.55,South,169,6.9,6.9,92,0.00,OVC,,0.00,WeatherDisplay:10.37,2013-01-01 11:33:00,
2013-01-01 03:38:00,19.4,17.5,30.57,SSE,168,3.5,3.5,92,0.00,OVC,,0.00,WeatherDisplay:10.37,2013-01-01 11:38:00,
2013-01-01 03:43:00,19.4,19.4,30.58,SSE,168,0.0,0.0,100,0.00,OVC,,0.00,WeatherDisplay:10.37,2013-01-01 11:43:00,
2013-01-01 03:48:00,19.4,17.5,30.59,SSE,168,0.0,0.0,92,0.00,OVC,,0.00,WeatherDisplay:10.37,2013-01-01 11:48:00,
2013-01-01 03:53:00,19.4,17.5,30.59,SSE,168,0.0,0.0,92,0.00,OVC,,0.00,WeatherDisplay:10.37,2013-01-01 11:53:00,
2013-01-01 03:58:00,19.4,17.5,30.59,SSE,168,0.0,0.3,92,0.00,OVC,,0.00,WeatherDisplay:10.37,2013-01-01 11:58:00,
2013-01-01 04:03:00,19.5,17.6,30.59,SSE,168,0.0,0.0,92,0.00,OVC,,0.00,WeatherDisplay:10.37,2013-01-01 12:03:00,
2013-01-01 04:08:00,19.5,17.6,30.58,SSE,168,0.0,0.0,92,0.00,OVC,,0.00,WeatherDisplay:10.37,2013-01-01 12:08:00,
2013-01-01 04:13:00,19.5,17.6,30.58,SSE,168,0.0,0.0,92,0.00,OVC,,0.00,WeatherDisplay:10.37,2013-01-01 12:13:00,
2013-01-01 04:18:00,19.5,17.6,30.59,SSE,168,0.0,0.0,92,0.00,OVC,,0.00,WeatherDisplay:10.37,2013-01-01 12:18:00,
2013-01-01 04:23:00,19.5,17.6,30.59,SSE,168,1.1,1.1,92,0.00,OVC,,0.00,WeatherDisplay:10.37,2013-01-01 12:23:00,
2013-01-01 04:28:00,19.5,17.6,30.59,SSE,168,0.0,0.0,92,0.00,OVC,,0.00,WeatherDisplay:10.37,2013-01-01 12:28:00,
2013-01-01 04:33:00,19.5,17.6,30.59,SSE,168,1.1,1.1,92,0.00,OVC,,0.00,WeatherDisplay:10.37,2013-01-01 12:33:00,
2013-01-01 04:38:00,19.5,17.6,30.59,SSE,168,0.0,0.0,92,0.00,OVC,,0.00,WeatherDisplay:10.37,2013-01-01 12:38:00,
2013-01-01 04:43:00,19.5,17.6,30.60,SSE,168,0.0,0.0,92,0.00,OVC,,0.00,WeatherDisplay:10.37,2013-01-01 12:43:00,
2013-01-01 04:48:00,19.5,17.6,30.59,SSE,168,0.0,0.0,92,0.00,OVC,,0.00,WeatherDisplay:10.37,2013-01-01 12:48:00,
2013-01-01 04:53:00,19.5,17.6,30.60,SSE,168,0.0,0.0,92,0.00,OVC,,0.00,WeatherDisplay:10.37,2013-01-01 12:53:00,
2013-01-01 04:58:00,19.5,17.6,30.60,SSE,168,0.0,0.0,92,0.00,OVC,,0.00,WeatherDisplay:10.37,2013-01-01 12:58:00,
2013-01-01 05:03:00,19.5,17.6,30.61,SSE,168,0.0,0.0,92,0.00,OVC,,0.00,WeatherDisplay:10.37,2013-01-01 13:03:00,
2013-01-01 05:08:00,19.5,17.6,30.61,SSE,168,0.0,0.0,92,0.00,OVC,,0.00,WeatherDisplay:10.37,2013-01-01 13:08:00,
2013-01-01 05:13:00,19.5,17.6,30.60,SSE,168,0.0,0.0,92,0.00,OVC,,0.00,WeatherDisplay:10.37,2013-01-01 13:13:00,
2013-01-01 05:18:00,19.5,17.6,30.61,SSE,168,0.0,0.0,92,0.00,OVC,,0.00,WeatherDisplay:10.37,2013-01-01 13:18:00,
2013-01-01 05:23:00,19.5,17.6,30.61,SSE,168,0.0,0.0,92,0.00,OVC,,0.00,WeatherDisplay:10.37,2013-01-01 13:23:00,
2013-01-01 05:28:00,19.5,17.6,30.62,South,172,1.1,0.0,92,0.00,OVC,,0.00,WeatherDisplay:10.37,2013-01-01 13:28:00,
2013-01-01 05:33:00,19.6,17.7,30.62,West,265,3.5,3.5,92,0.00,OVC,,0.00,WeatherDisplay:10.37,2013-01-01 13:33:00,
2013-01-01 05:38:00,19.6,17.7,30.62,West,266,1.1,0.0,92,0.00,OVC,,0.00,WeatherDisplay:10.37,2013-01-01 13:38:00,
2013-01-01 05:43:00,19.7,17.8,30.62,West,266,1.1,0.0,92,0.00,OVC,,0.00,WeatherDisplay:10.37,2013-01-01 13:43:00,
2013-01-01 05:48:00,19.7,17.8,30.63,West,266,0.0,0.0,92,0.00,OVC,,0.00,WeatherDisplay:10.37,2013-01-01 13:48:00,
2013-01-01 05:53:00,19.7,17.8,30.62,West,266,0.0,0.0,92,0.00,OVC,,0.00,WeatherDisplay:10.37,2013-01-01 13:53:00,
2013-01-01 05:58:00,19.6,17.7,30.63,West,266,3.5,3.5,92,0.00,OVC,,0.00,WeatherDisplay:10.37,2013-01-01 13:58:00,
2013-01-01 06:03:00,19.7,17.8,30.62,West,266,0.0,0.0,92,0.00,OVC,,0.00,WeatherDisplay:10.37,2013-01-01 14:03:00,
2013-01-01 06:08:00,19.7,17.8,30.62,West,265,3.5,3.5,92,0.00,OVC,,0.00,WeatherDisplay:10.37,2013-01-01 14:08:00,
2013-01-01 06:13:00,19.6,17.7,30.62,West,266,0.0,0.0,92,0.00,OVC,,0.00,WeatherDisplay:10.37,2013-01-01 14:13:00,
2013-01-01 06:18:00,19.7,17.8,30.63,West,266,1.1,0.0,92,0.00,OVC,,0.00,WeatherDisplay:10.37,2013-01-01 14:18:00,
2013-01-01 06:23:00,19.7,17.8,30.63,West,267,3.5,3.5,92,0.00,OVC,,0.00,WeatherDisplay:10.37,2013-01-01 14:23:00,
2013-01-01 06:28:00,19.7,17.8,30.63,West,267,0.0,0.0,92,0.00,OVC,,0.00,WeatherDisplay:10.37,2013-01-01 14:28:00,
2013-01-01 06:33:00,19.6,17.7,30.64,West,267,2.3,2.3,92,0.00,OVC,,0.00,WeatherDisplay:10.37,2013-01-01 14:33:00,
2013-01-01 06:38:00,19.7,17.8,30.63,West,267,1.1,0.0,92,0.00,OVC,,0.00,WeatherDisplay:10.37,2013-01-01 14:38:00,
2013-01-01 06:43:00,19.6,17.7,30.64,West,267,1.1,0.0,92,0.00,OVC,,0.00,WeatherDisplay:10.37,2013-01-01 14:43:00,
2013-01-01 06:48:00,19.6,17.7,30.64,West,267,2.3,2.3,92,0.00,OVC,,0.00,WeatherDisplay:10.37,2013-01-01 14:48:00,
2013-01-01 06:53:00,19.6,17.7,30.64,West,267,2.3,2.3,92,0.00,OVC,,0.00,WeatherDisplay:10.37,2013-01-01 14:53:00,
2013-01-01 06:58:00,19.6,17.7,30.64,West,267,1.1,1.1,92,0.00,OVC,,0.00,WeatherDisplay:10.37,2013-01-01 14:58:00,
2013-01-01 07:03:00,19.6,17.7,30.65,West,267,2.3,2.3,92,0.00,OVC,,0.00,WeatherDisplay:10.37,2013-01-01 15:03:00,
2013-01-01 07:08:00,19.7,17.8,30.65,West,267,0.0,0.0,92,0.00,OVC,,0.00,WeatherDisplay:10.37,2013-01-01 15:08:00,
2013-01-01 07:13:00,19.7,17.8,30.64,West,267,2.3,2.3,92,0.00,OVC,,0.00,WeatherDisplay:10.37,2013-01-01 15:13:00,
2013-01-01 07:18:00,19.6,17.7,30.64,West,267,1.1,0.0,92,0.00,OVC,,0.00,WeatherDisplay:10.37,2013-01-01 15:18:00,
2013-01-01 07:23:00,19.6,17.7,30.64,West,267,1.1,1.1,92,0.00,OVC,,0.00,WeatherDisplay:10.37,2013-01-01 15:23:00,
2013-01-01 07:28:00,19.5,17.6,30.64,West,267,0.0,0.0,92,0.00,OVC,,0.00,WeatherDisplay:10.37,2013-01-01 15:28:00,
2013-01-01 07:33:00,19.5,17.6,30.63,West,267,0.0,0.0,92,0.00,OVC,,0.00,WeatherDisplay:10.37,2013-01-01 15:33:00,
2013-01-01 07:38:00,19.5,17.6,30.63,West,267,2.3,2.3,92,0.00,OVC,,0.00,WeatherDisplay:10.37,2013-01-01 15:38:00,
2013-01-01 07:43:00,19.4,17.5,30.63,West,267,2.3,2.3,92,0.00,OVC,,0.00,WeatherDisplay:10.37,2013-01-01 15:43:00,
2013-01-01 07:48:00,19.4,17.5,30.64,West,267,2.3,2.3,92,0.00,OVC,,0.00,WeatherDisplay:10.37,2013-01-01 15:48:00,
2013-01-01 07:53:00,19.5,17.6,30.64,West,267,3.5,3.5,92,0.00,OVC,,0.00,WeatherDisplay:10.37,2013-01-01 15:53:00,
2013-01-01 07:58:00,19.5,17.6,30.64,West,267,2.3,2.3,92,0.00,OVC,,0.00,WeatherDisplay:10.37,2013-01-01 15:58:00,
2013-01-01 08:03:00,19.5,17.6,30.65,West,267,0.0,0.2,92,0.00,OVC,,0.00,WeatherDisplay:10.37,2013-01-01 16:03:00,
2013-01-01 08:08:00,19.5,17.6,30.65,West,267,1.1,1.1,92,0.00,OVC,,0.00,WeatherDisplay:10.37,2013-01-01 16:08:00,
2013-01-01 08:13:00,19.5,17.6,30.65,West,267,0.0,0.0,92,0.00,OVC,,0.00,WeatherDisplay:10.37,2013-01-01 16:13:00,
2013-01-01 08:18:00,19.7,17.8,30.65,West,267,0.0,0.0,92,0.00,OVC,,0.00,WeatherDisplay:10.37,2013-01-01 16:18:00,
2013-01-01 08:23:00,19.7,17.8,30.65,South,184,0.0,0.0,92,0.00,OVC,,0.00,WeatherDisplay:10.37,2013-01-01 16:23:00,
2013-01-01 08:28:00,19.7,17.8,30.66,South,184,0.0,0.0,92,0.00,OVC,,0.00,WeatherDisplay:10.37,2013-01-01 16:28:00,
2013-01-01 08:33:00,19.8,17.9,30.66,South,184,2.3,2.3,92,0.00,OVC,,0.00,WeatherDisplay:10.37,2013-01-01 16:33:00,
2013-01-01 08:39:00,19.7,17.8,30.66,South,184,0.0,0.0,92,0.00,OVC,,0.00,WeatherDisplay:10.37,2013-01-01 16:39:00,
2013-01-01 08:44:00,19.8,17.9,30.67,South,184,0.0,0.0,92,0.00,OVC,,0.00,WeatherDisplay:10.37,2013-01-01 16:44:00,
2013-01-01 08:48:00,20.0,18.1,30.67,South,184,1.1,1.1,92,0.00,OVC,,0.00,WeatherDisplay:10.37,2013-01-01 16:48:00,
2013-01-01 08:54:00,20.1,18.1,30.67,South,184,1.0,0.0,92,0.00,OVC,,0.00,WeatherDisplay:10.37,2013-01-01 16:54:00,
2013-01-01 08:59:00,20.1,18.1,30.67,South,184,1.1,1.1,92,0.00,OVC,,0.00,WeatherDisplay:10.37,2013-01-01 16:59:00,
2013-01-01 09:04:00,19.8,17.9,30.67,South,184,0.0,0.0,92,0.00,OVC,,0.00,WeatherDisplay:10.37,2013-01-01 17:04:00,
2013-01-01 09:09:00,19.7,17.8,30.67,South,184,0.0,0.0,92,0.00,OVC,,0.00,WeatherDisplay:10.37,2013-01-01 17:09:00,
2013-01-01 09:14:00,19.7,17.8,30.67,South,184,3.5,3.5,92,0.00,OVC,,0.00,WeatherDisplay:10.37,2013-01-01 17:14:00,
2013-01-01 09:19:00,19.7,17.8,30.67,South,184,2.3,2.3,92,0.00,OVC,,0.00,WeatherDisplay:10.37,2013-01-01 17:19:00,
2013-01-01 09:24:00,19.7,17.8,30.67,South,184,3.5,3.5,92,0.00,OVC,,0.00,WeatherDisplay:10.37,2013-01-01 17:24:00,
2013-01-01 09:29:00,19.7,17.8,30.67,South,184,4.0,4.0,92,0.00,OVC,,0.00,WeatherDisplay:10.37,2013-01-01 17:29:00,
2013-01-01 09:34:00,19.7,17.8,30.67,WSW,242,6.0,6.0,92,0.00,OVC,,0.00,WeatherDisplay:10.37,2013-01-01 17:34:00,
2013-01-01 09:39:00,19.7,17.8,30.68,WSW,252,3.5,3.5,92,0.00,OVC,,0.00,WeatherDisplay:10.37,2013-01-01 17:39:00,
2013-01-01 09:44:00,19.7,17.8,30.68,WSW,252,2.3,2.3,92,0.00,OVC,,0.00,WeatherDisplay:10.37,2013-01-01 17:44:00,
2013-01-01 09:49:00,19.7,17.8,30.67,WSW,250,3.5,3.5,92,0.00,OVC,,0.00,WeatherDisplay:10.37,2013-01-01 17:49:00,
2013-01-01 09:54:00,19.7,17.8,30.67,SW,217,5.8,5.8,92,0.00,OVC,,0.00,WeatherDisplay:10.37,2013-01-01 17:54:00,
2013-01-01 09:59:00,19.7,17.8,30.67,SW,217,3.5,3.5,92,0.00,OVC,,0.00,WeatherDisplay:10.37,2013-01-01 17:59:00,
2013-01-01 10:04:00,19.7,17.8,30.67,SW,217,2.3,2.3,92,0.00,OVC,,0.00,WeatherDisplay:10.37,2013-01-01 18:04:00,
2013-01-01 10:09:00,20.0,18.1,30.67,SW,221,2.3,2.3,92,0.00,OVC,,0.00,WeatherDisplay:10.37,2013-01-01 18:09:00,
2013-01-01 10:14:00,20.4,18.7,30.67,SW,221,2.3,2.3,93,0.00,OVC,,0.00,WeatherDisplay:10.37,2013-01-01 18:14:00,
2013-01-01 10:19:00,21.1,19.4,30.67,SW,221,0.0,0.0,93,0.00,OVC,,0.00,WeatherDisplay:10.37,2013-01-01 18:19:00,
2013-01-01 10:24:00,21.8,20.1,30.66,SW,221,1.1,1.1,93,0.00,OVC,,0.00,WeatherDisplay:10.37,2013-01-01 18:24:00,
2013-01-01 10:29:00,22.3,20.6,30.66,SW,221,0.0,0.0,93,0.00,OVC,,0.00,WeatherDisplay:10.37,2013-01-01 18:29:00,
2013-01-01 10:34:00,22.9,21.2,30.66,SW,221,0.0,0.0,93,0.00,OVC,,0.00,WeatherDisplay:10.37,2013-01-01 18:34:00,
2013-01-01 10:39:00,23.4,21.7,30.66,SW,221,0.0,0.0,93,0.00,OVC,,0.00,WeatherDisplay:10.37,2013-01-01 18:39:00,
2013-01-01 10:44:00,23.1,21.1,30.66,SW,221,0.0,0.0,92,0.00,OVC,,0.00,WeatherDisplay:10.37,2013-01-01 18:44:00,
2013-01-01 10:49:00,23.0,21.0,30.66,SW,221,1.1,1.1,92,0.00,OVC,,0.00,WeatherDisplay:10.37,2013-01-01 18:49:00,
2013-01-01 10:54:00,23.1,21.4,30.66,SW,221,3.5,3.5,93,0.00,OVC,,0.00,WeatherDisplay:10.37,2013-01-01 18:54:00,
2013-01-01 10:59:00,23.1,21.4,30.66,SW,221,3.5,3.5,93,0.00,OVC,,0.00,WeatherDisplay:10.37,2013-01-01 18:59:00,
2013-01-01 11:04:00,22.7,20.7,30.65,SW,221,1.1,1.1,92,0.00,OVC,,0.00,WeatherDisplay:10.37,2013-01-01 19:04:00,
2013-01-01 11:09:00,22.8,20.8,30.65,SW,221,2.3,2.3,92,0.00,OVC,,0.00,WeatherDisplay:10.37,2013-01-01 19:09:00,
2013-01-01 11:14:00,23.1,21.4,30.65,SW,221,2.3,2.3,93,0.00,OVC,,0.00,WeatherDisplay:10.37,2013-01-01 19:14:00,
2013-01-01 11:18:00,23.3,21.6,30.65,SW,221,1.1,0.0,93,0.00,OVC,,0.00,WeatherDisplay:10.37,2013-01-01 19:18:00,
2013-01-01 11:19:00,23.3,21.6,30.65,SW,221,1.1,0.0,93,0.00,OVC,,0.00,WeatherDisplay:10.37,2013-01-01 19:19:00,
2013-01-01 11:24:00,23.3,21.6,30.65,SW,221,1.1,0.0,93,0.00,OVC,,0.00,WeatherDisplay:10.37,2013-01-01 19:24:00,
2013-01-01 11:33:00,23.3,21.6,30.65,SW,221,1.1,0.0,93,0.00,OVC,,0.00,WeatherDisplay:10.37,2013-01-01 19:33:00,
2013-01-01 11:49:00,23.3,21.6,30.65,SW,221,1.1,0.0,93,0.00,OVC,,0.00,WeatherDisplay:10.37,2013-01-01 19:49:00,
2013-01-01 11:54:00,23.3,21.6,30.65,SW,221,1.1,0.0,93,0.00,OVC,,0.00,WeatherDisplay:10.37,2013-01-01 19:54:00,
2013-01-01 12:09:00,23.3,21.6,30.65,SW,221,1.1,0.0,93,0.00,OVC,,0.00,WeatherDisplay:10.37,2013-01-01 20:09:00,
2013-01-01 12:15:00,23.3,21.6,30.65,SW,221,1.1,0.0,93,0.00,OVC,,0.00,WeatherDisplay:10.37,2013-01-01 20:15:00,
2013-01-01 12:20:00,23.3,21.6,30.65,SW,221,1.1,0.0,93,0.00,OVC,,0.00,WeatherDisplay:10.37,2013-01-01 20:20:00,
2013-01-01 12:25:00,23.3,21.6,30.65,SW,221,1.1,0.0,93,0.00,OVC,,0.00,WeatherDisplay:10.37,2013-01-01 20:25:00,
2013-01-01 12:38:00,23.3,21.6,30.65,SW,221,1.1,0.0,93,0.00,OVC,,0.00,WeatherDisplay:10.37,2013-01-01 20:38:00,
2013-01-01 12:44:00,23.3,21.6,30.65,SW,221,1.1,0.0,93,0.00,OVC,,0.00,WeatherDisplay:10.37,2013-01-01 20:44:00,
2013-01-01 12:57:00,23.3,21.6,30.65,SW,221,1.1,0.0,93,0.00,OVC,,0.00,WeatherDisplay:10.37,2013-01-01 20:57:00,
2013-01-01 13:23:00,23.3,21.6,30.65,SW,221,1.1,0.0,93,0.00,OVC,,0.00,WeatherDisplay:10.37,2013-01-01 21:23:00,
2013-01-01 13:41:00,23.3,21.6,30.65,SW,221,1.1,0.0,93,0.00,OVC,,0.00,WeatherDisplay:10.37,2013-01-01 21:41:00,
2013-01-01 14:09:00,23.3,21.6,30.65,SW,221,1.1,0.0,93,0.00,OVC,,0.00,WeatherDisplay:10.37,2013-01-01 22:09:00,
2013-01-01 14:27:00,23.3,21.6,30.65,SW,221,1.1,0.0,93,0.00,OVC,,0.00,WeatherDisplay:10.37,2013-01-01 22:27:00,
2013-01-01 14:39:00,23.3,21.6,30.65,SW,221,1.1,0.0,93,0.00,OVC,,0.00,WeatherDisplay:10.37,2013-01-01 22:39:00,
2013-01-01 15:13:00,23.3,21.6,30.65,SW,221,1.1,0.0,93,0.00,OVC,,0.00,WeatherDisplay:10.37,2013-01-01 23:13:00,
2013-01-01 15:19:00,23.3,21.6,30.65,SW,221,1.1,0.0,93,0.00,OVC,,0.00,WeatherDisplay:10.37,2013-01-01 23:19:00,
2013-01-01 15:44:00,23.3,21.6,30.65,SW,221,1.1,0.0,93,0.00,OVC,,0.00,WeatherDisplay:10.37,2013-01-01 23:44:00,
2013-01-01 16:02:00,23.3,21.6,30.65,SW,221,1.1,0.0,93,0.00,OVC,,0.00,WeatherDisplay:10.37,2013-01-02 00:02:00,
2013-01-01 16:32:00,23.3,21.6,30.65,SW,221,1.1,0.0,93,0.00,OVC,,0.00,WeatherDisplay:10.37,2013-01-02 00:32:00,
2013-01-01 16:46:00,23.3,21.6,30.65,SW,221,1.1,0.0,93,0.00,OVC,,0.00,WeatherDisplay:10.37,2013-01-02 00:46:00,
2013-01-01 16:59:00,23.3,21.6,30.65,SW,221,1.1,0.0,93,0.00,OVC,,0.00,WeatherDisplay:10.37,2013-01-02 00:59:00,
2013-01-01 17:06:00,23.3,21.6,30.65,SW,221,1.1,0.0,93,0.00,OVC,,0.00,WeatherDisplay:10.37,2013-01-02 01:06:00,
2013-01-01 17:18:00,23.3,21.6,30.65,SW,221,1.1,0.0,93,0.00,OVC,,0.00,WeatherDisplay:10.37,2013-01-02 01:18:00,
2013-01-01 17:23:00,23.3,21.6,30.65,SW,221,1.1,0.0,93,0.00,OVC,,0.00,WeatherDisplay:10.37,2013-01-02 01:23:00,
2013-01-01 17:40:00,23.3,21.6,30.65,SW,221,1.1,0.0,93,0.00,OVC,,0.00,WeatherDisplay:10.37,2013-01-02 01:40:00,
2013-01-01 18:00:00,23.3,21.6,30.65,SW,221,1.1,0.0,93,0.00,OVC,,0.00,WeatherDisplay:10.37,2013-01-02 02:00:00,
2013-01-01 18:25:00,23.3,21.6,30.65,SW,221,1.1,0.0,93,0.00,OVC,,0.00,WeatherDisplay:10.37,2013-01-02 02:25:00,
2013-01-01 18:32:00,23.3,21.6,30.65,SW,221,1.1,0.0,93,0.00,OVC,,0.00,WeatherDisplay:10.37,2013-01-02 02:32:00,
2013-01-01 18:38:00,23.3,21.6,30.65,SW,221,1.1,0.0,93,0.00,OVC,,0.00,WeatherDisplay:10.37,2013-01-02 02:38:00,
2013-01-01 18:43:00,23.3,21.6,30.65,SW,221,1.1,0.0,93,0.00,OVC,,0.00,WeatherDisplay:10.37,2013-01-02 02:43:00,
2013-01-01 18:59:00,23.3,21.6,30.65,SW,221,1.1,0.0,93,0.00,OVC,,0.00,WeatherDisplay:10.37,2013-01-02 02:59:00,
2013-01-01 19:33:00,23.3,21.6,30.65,SW,221,1.1,0.0,93,0.00,OVC,,0.00,WeatherDisplay:10.37,2013-01-02 03:33:00,
2013-01-01 19:53:00,23.3,21.6,30.65,SW,221,1.1,0.0,93,0.00,OVC,,0.00,WeatherDisplay:10.37,2013-01-02 03:53:00,
2013-01-01 20:00:00,23.3,21.6,30.65,SW,221,1.1,0.0,93,0.00,OVC,,0.00,WeatherDisplay:10.37,2013-01-02 04:00:00,
2013-01-01 20:11:00,23.3,21.6,30.65,SW,221,1.1,0.0,93,0.00,OVC,,0.00,WeatherDisplay:10.37,2013-01-02 04:11:00,
2013-01-01 20:18:00,23.3,21.6,30.65,SW,221,1.1,0.0,93,0.00,OVC,,0.00,WeatherDisplay:10.37,2013-01-02 04:18:00,
2013-01-01 20:32:00,23.3,21.6,30.65,SW,221,1.1,0.0,93,0.00,OVC,,0.00,WeatherDisplay:10.37,2013-01-02 04:32:00,
2013-01-01 20:59:00,23.3,21.6,30.65,SW,221,1.1,0.0,93,0.00,OVC,,0.00,WeatherDisplay:10.37,2013-01-02 04:59:00,
2013-01-01 21:10:00,23.3,21.6,30.65,SW,221,1.1,0.0,93,0.00,OVC,,0.00,WeatherDisplay:10.37,2013-01-02 05:10:00,
2013-01-01 21:19:00,23.3,21.6,30.65,SW,221,1.1,0.0,93,0.00,OVC,,0.00,WeatherDisplay:10.37,2013-01-02 05:19:00,
2013-01-01 21:27:00,23.3,21.6,30.65,SW,221,1.1,0.0,93,0.00,OVC,,0.00,WeatherDisplay:10.37,2013-01-02 05:27:00,
2013-01-01 21:54:00,23.3,21.6,30.65,SW,221,1.1,0.0,93,0.00,OVC,,0.00,WeatherDisplay:10.37,2013-01-02 05:54:00,
2013-01-01 22:04:00,23.3,21.6,30.65,SW,221,1.1,0.0,93,0.00,OVC,,0.00,WeatherDisplay:10.37,2013-01-02 06:04:00,
2013-01-01 22:17:00,23.3,21.6,30.65,SW,221,1.1,0.0,93,0.00,OVC,,0.00,WeatherDisplay:10.37,2013-01-02 06:17:00,
2013-01-01 22:39:00,23.3,21.6,30.65,SW,221,1.1,0.0,93,0.00,OVC,,0.00,WeatherDisplay:10.37,2013-01-02 06:39:00,
2013-01-01 22:51:00,23.3,21.6,30.65,SW,221,1.1,0.0,93,0.00,OVC,,0.00,WeatherDisplay:10.37,2013-01-02 06:51:00,
2013-01-01 22:57:00,23.3,21.6,30.65,SW,221,1.1,0.0,93,0.00,OVC,,0.00,WeatherDisplay:10.37,2013-01-02 06:57:00,
2013-01-01 23:14:00,23.3,21.6,30.65,SW,221,1.1,0.0,93,0.00,OVC,,0.00,WeatherDisplay:10.37,2013-01-02 07:14:00,
2013-01-01 23:25:00,23.3,21.6,30.65,SW,221,1.1,0.0,93,0.00,OVC,,0.00,WeatherDisplay:10.37,2013-01-02 07:25:00,
2013-01-01 23:36:00,23.3,21.6,30.65,SW,221,1.1,0.0,93,0.00,OVC,,0.00,WeatherDisplay:10.37,2013-01-02 07:36:00,
2013-01-01 23:43:00,23.3,21.6,30.65,SW,221,1.1,0.0,93,0.00,OVC,,0.00,WeatherDisplay:10.37,2013-01-02 07:43:00,
2013-01-01 23:48:00,23.3,21.6,30.65,SW,221,1.1,0.0,93,0.00,OVC,,0.00,WeatherDisplay:10.37,2013-01-02 07:48:00,